Location: Carrières
(48.9495°N, 2.0407°E)
Time: 18:36:52
(UTC+00:00)

Transit 2A - All Passes

Search period start: 19 April 2024 00:00
Search period end: 29 April 2024 00:00
Orbit: 596 x 956 km, 66.7° (Epoch: 18 April)

Date Brightness Start Highest point End Pass type
(mag) Time Alt. Az. Time Alt. Az. Time Alt. Az.
19 Apr - 05:26:43 10° SE 05:29:27 16° ESE 05:32:17 10° ENE daylight
19 Apr - 07:07:25 10° SW 07:11:51 72° NW 07:16:39 10° NNE daylight
19 Apr - 08:52:41 10° WNW 08:55:53 18° NNW 08:59:17 10° NNE daylight
19 Apr - 10:40:21 10° N 10:41:10 10° N 10:42:00 10° N daylight
19 Apr - 12:23:22 10° NNW 12:26:34 16° NNE 12:29:56 10° ENE daylight
19 Apr - 14:05:45 10° NNW 14:10:56 47° NE 14:16:36 10° ESE daylight
19 Apr - 15:48:58 10° NW 15:54:02 38° WSW 15:59:31 10° S daylight
20 Apr - 04:53:55 10° ESE 04:54:38 10° ESE 04:55:23 10° E daylight
20 Apr - 06:32:18 10° SSW 06:36:42 79° SE 06:41:31 10° NE daylight
20 Apr - 08:16:50 10° W 08:20:27 22° NNW 08:24:19 10° NNE daylight
20 Apr - 10:04:20 10° NNW 10:05:33 11° N 10:06:47 10° N daylight
20 Apr - 11:48:23 10° N 11:51:02 14° NNE 11:53:48 10° NE daylight
20 Apr - 13:30:43 10° NNW 13:35:39 36° NE 13:41:01 10° ESE daylight
20 Apr - 15:13:40 10° NW 15:19:00 53° WSW 15:24:49 10° SSE daylight
21 Apr - 05:57:22 10° SSW 06:01:39 53° ESE 06:06:17 10° NE daylight
21 Apr - 07:41:07 10° W 07:45:03 28° NW 07:49:18 10° NNE daylight
21 Apr - 09:28:11 10° NNW 09:29:56 12° NNW 09:31:44 10° N daylight
21 Apr - 11:13:22 10° N 11:15:27 12° NNE 11:17:36 10° NE daylight
21 Apr - 12:55:42 10° NNW 13:00:19 29° NE 13:05:19 10° E daylight
21 Apr - 14:38:28 10° NW 14:43:55 73° WSW 14:49:54 10° SSE daylight
21 Apr - 16:23:28 10° WNW 16:26:19 14° WSW 16:29:16 10° SW daylight
22 Apr - 05:22:38 10° S 05:26:40 35° ESE 05:30:58 10° NE daylight
22 Apr - 07:05:31 10° WSW 07:09:43 37° NW 07:14:17 10° NNE daylight
22 Apr - 08:52:02 10° NW 08:54:20 13° NNW 08:56:45 10° N daylight
22 Apr - 10:38:18 10° N 10:39:51 11° N 10:41:25 10° NNE daylight
22 Apr - 12:20:43 10° NNW 12:24:56 23° NE 12:29:27 10° E daylight
22 Apr - 14:03:19 10° NW 14:08:47 83° NE 14:14:47 10° SE daylight
22 Apr - 15:47:25 10° WNW 15:51:26 20° WSW 15:55:40 10° SSW daylight
23 Apr - 04:48:11 10° SSE 04:51:44 24° ESE 04:55:29 10° ENE daylight
23 Apr - 06:30:05 10° SW 06:34:27 51° NW 06:39:13 10° NNE daylight
23 Apr - 08:15:58 10° WNW 08:18:48 15° NNW 08:21:46 10° NNE daylight
23 Apr - 10:03:05 10° N 10:04:13 11° N 10:05:22 10° NNE daylight
23 Apr - 11:45:43 10° NNW 11:49:29 19° NNE 11:53:29 10° ENE daylight
23 Apr - 13:28:12 10° NNW 13:33:37 63° NE 13:39:31 10° SE daylight
23 Apr - 15:11:47 10° NW 15:16:30 28° WSW 15:21:31 10° SSW daylight
24 Apr - 04:14:08 10° SE 04:16:51 16° ESE 04:19:41 10° ENE daylight
24 Apr - 05:54:47 10° SW 05:59:14 73° NW 06:04:07 10° NNE daylight
24 Apr - 07:40:01 10° WNW 07:43:17 18° NNW 07:46:47 10° NNE daylight
24 Apr - 09:27:29 10° NNW 09:28:34 11° N 09:29:41 10° N daylight
24 Apr - 11:10:43 10° NNW 11:13:59 16° NNE 11:17:26 10° ENE daylight
24 Apr - 12:53:08 10° NNW 12:58:23 47° NE 13:04:05 10° ESE daylight
24 Apr - 14:36:21 10° NW 14:41:30 39° WSW 14:47:02 10° S daylight
25 Apr - 03:41:22 10° ESE 03:42:03 10° ESE 03:42:44 10° E visible
25 Apr - 05:19:40 10° SSW 05:24:06 78° SE 05:28:57 10° NE daylight
25 Apr - 07:04:09 10° W 07:07:50 23° NNW 07:11:47 10° NNE daylight
25 Apr - 08:51:31 10° NNW 08:52:56 11° N 08:54:24 10° N daylight
25 Apr - 10:35:42 10° NNW 10:38:26 14° NNE 10:41:17 10° NE daylight
25 Apr - 12:18:06 10° NNW 12:23:05 36° NE 12:28:30 10° ESE daylight
25 Apr - 14:01:03 10° NW 14:06:27 54° WSW 14:12:19 10° SSE daylight
26 Apr - 04:44:44 10° SSW 04:49:02 52° ESE 04:53:43 10° NE daylight
26 Apr - 06:28:26 10° W 06:32:26 29° NW 06:36:46 10° NNE daylight
26 Apr - 08:15:24 10° NW 08:17:19 12° NNW 08:19:17 10° N daylight
26 Apr - 10:00:39 10° N 10:02:50 12° NNE 10:05:06 10° NE daylight
26 Apr - 11:43:04 10° NNW 11:47:44 29° NE 11:52:47 10° E daylight
26 Apr - 13:25:50 10° NW 13:31:22 74° WSW 13:37:23 10° SSE daylight
26 Apr - 15:10:46 10° WNW 15:13:46 14° WSW 15:16:51 10° SW daylight
27 Apr - 04:10:01 10° S 04:14:02 35° ESE 04:18:23 10° NE daylight
27 Apr - 05:52:51 10° WSW 05:57:05 38° NW 06:01:43 10° NNE daylight
27 Apr - 07:39:18 10° NW 07:41:43 14° NNW 07:44:15 10° NNE daylight
27 Apr - 09:25:32 10° N 09:27:13 11° N 09:28:57 10° NNE daylight
27 Apr - 11:08:03 10° NNW 11:12:20 23° NE 11:16:55 10° E daylight
27 Apr - 12:50:41 10° NW 12:56:13 83° NE 13:02:16 10° SE daylight
27 Apr - 14:34:45 10° WNW 14:38:52 21° WSW 14:43:12 10° SSW daylight
28 Apr - 03:35:32 10° SSE 03:39:06 24° ESE 03:42:53 10° ENE visible
28 Apr - 05:17:24 10° SW 05:21:49 52° NW 05:26:39 10° NNE daylight
28 Apr - 07:03:14 10° WNW 07:06:09 16° NNW 07:09:14 10° NNE daylight
28 Apr - 08:50:14 10° NNW 08:51:35 11° N 08:52:57 10° NNE daylight
28 Apr - 10:33:02 10° NNW 10:36:53 19° NNE 10:40:56 10° ENE daylight
28 Apr - 12:15:34 10° NNW 12:21:01 62° NE 12:26:59 10° SE daylight
28 Apr - 13:59:07 10° NW 14:03:55 29° WSW 14:09:01 10° S daylight
